Orbital Elements at Epoch 2459200.5 (2020-Dec-17.0) TDB
Reference: JPL 21 (heliocentric ecliptic J2000)
Element | Value | Uncertainty (1-sigma) | Units |
e | .1806557209814155 | 4.1155e-08 | |
a | 2.246341451351472 | 7.1586e-09 | au |
q | 1.840527016887133 | 9.3172e-08 | au |
i | 2.169415088838015 | 4.3504e-06 | deg |
node | 307.1548475156114 | 0.00010186 | deg |
peri | 62.5530179795953 | 0.00010244 | deg |
M | 227.9611304577737 | 1.0336e-05 | deg |
tp | 2459651.536179920981 (2022-Mar-13.03617992) | 3.6005e-05 | TDB |
period | 1229.736556625288 3.37 | 5.8783e-06 1.609e-08 | d yr |
n | .2927456275577691 | 1.3994e-09 | deg/d |
Q | 2.652155885815811 | 8.4518e-09 | au |
|
| | Orbit Determination Parameters
Additional Information
|